Live-Position
3D-Globus wird geladen...
Über Qianfan Jigui 01-08
Group: 3 satellites
Beschreibung wird geladen...
Nächste Überflüge
Passes for default location (London). Set your location on the main map for personalized predictions.
Höhenverlauf
Loading altitude history...
No altitude history available
Zweizeiliger Elementsatz
1 60386U 24140H 26106.95057250 .00000032 00000-0 30470-4 0 9995
2 60386 88.9684 286.2888 0016274 189.9545 170.1286 13.51007173 84253
Epoch: 16. Apr. 2026 •
Age: 9 hours
Aktueller Status
Höhe 1082.9 km
Geschwindigkeit 7.31 km/s
Subsatellitenpunkt 10.07°N,
35.29°W
Startdatum 6. Aug. 2024
Alter 1.6 years
Typ internet
Technische Details
Klassifizierung Payload
Masse 267.00 kg
Trockenmasse 267.00 kg
Gesamtmasse 267.00 kg
Länge 0.30 m
Durchmesser 3.00 m
Spannweite 10.00 m
Form Box+pan
Hersteller SECM
Bus-Typ Qianfan
Phasenstatus In Orbit
Besitzer/Staat YUANX/CN
Most Searched
Loading...